STARLINK-11610, 63135

Orbit data source: Space-Track

STARLINK-11610, 63135 is a payload satellite owned by SpaceX/Seattle (US) in LEO that was launched on Mon, 03 Mar 2025 UTC via an FALCON 9 launch vehicle from the Air Force Eastern Test Range (AFETR). Payload-class satellites include a variety of spacecraft equipped with specific instruments for various scientific and technological missions. These include communications satellites like Starlink; space stations such as the ISS; scientific satellites like the Hubble; Earth observation satellites from companies like Planet Labs, Umbra, and HawkEye 360; GPS; miniature CubeSats for education and research; and military/defense satellites.

Loading next visibility...
Identifier
63135, 2025-043D
Orbit
LEO
Country
Flag of USUS
Related business
Manufacturer
SpaceX/Seattle
Mission
Operational Commercial Communications
Bus & Motor
STARLINK V2MD, Unknown motor
Mass
960 kg wet, ~910 kg dry
Launch date (UTC)
2025-03-03 (10 months ago)
Launch vehicle
FALCON 9
Launch site
Air Force Eastern Test Range (AFETR)
Object type
Payload
Rocket body
Debris
Shape & HBR
Box + 2 Pan, 18.1 m
Radar Cross Section
36.964 m², Large (>1 m²)

Expand to show TLE details & history
Last TLE update: 22 hours ago

TLE from 22 hours ago
0 STARLINK-11610
1 63135U 25043D   25352.45839569  .00203745  00000-0  15474-2 0  9992
2 63135  43.0041  20.6158 0002859 283.5262  76.5287 15.70920016 46574
Epoch: 2025-12-18T11:00Z
TLE epoch observation values (Epoch: 2025-12-18T11:00:05.387Z)
Latitude
-0.00003°
Longitude
128.27971°
Altitude
355.59 km
Speed
7.698 km/s
True Right ascension
01h 22m 27s
True Declination
0° 00' 00"
Sunlit
Object was in full shadow at epoch
Visualization orbit readout
Latitude
Unknown
Longitude
Unknown
Altitude
Unknown
Speed
Unknown
Apparent Right ascension
Unknown
Apparent Declination
Unknown
Sunlit
N/A
Visualization observer readout
Local Sidereal Time
08:11:31
Azimuth
Unknown
Elevation
Unknown
Doppler factor
Unknown
Orbital elements
Apogee altitude
360.173 km
Perigee altitude
356.321 km
Semi-major axis
6,736.384 km
Eccentricity
0.00029
Inclination
43.0041°
RAAN
20.6158°
Arg. of periapsis
283.5262°
True anomaly
76.56056°
Mean anomaly
76.5287°
Eccentric anomaly
76.54463°
Mean motion
3.92557 °/min
Orbital period
91.71 mins
BSTAR
0.0015474
Loading maneuver chart data...
Computing Atmospheric mass density...
Loading historical data...
Loading historical data...
Loading historical data...
Loading historical data...
Loading historical data...
Loading historical data...
Loading historical data...

Documentation

Showing up to 5 results
|